This is the latest recevied weather packets stored in our database for station/object OE6JUE. If no packets are shown the sender has not sent any weather packets the latest 10 day(s).
| Time | Temp. | Humidity | Pressure | Rain* | Wind** | Luminosity | Snow |
|---|---|---|---|---|---|---|---|
| 1788023616 | 23.33° C | 45% | 1017.9 hPa | 0 mm | - | - | - |
| 1788023315 | 23.33° C | 44% | 1017.9 hPa | 0 mm | - | - | - |
| 1788023027 | 23.89° C | 44% | 1017.9 hPa | 0 mm | - | - | - |
| 1788022715 | 24.44° C | 43% | 1018 hPa | 0 mm | - | - | - |
| 1788022421 | 24.44° C | 42% | 1018 hPa | 0 mm | - | - | - |
| 1788022115 | 24.44° C | 42% | 1018 hPa | 0 mm | - | - | - |
| 1788021815 | 24.44° C | 42% | 1018 hPa | 0 mm | - | - | - |
| 1788021515 | 25° C | 41% | 1018.1 hPa | 0 mm | - | - | - |
| 1788021215 | 25.56° C | 41% | 1018 hPa | 0 mm | - | - | - |
| 1788020915 | 26.11° C | 40% | 1018.1 hPa | 0 mm | - | - | - |
| 1788020615 | 26.67° C | 39% | 1018 hPa | 0 mm | - | - | - |
| 1788020315 | 27.22° C | 39% | 1018.2 hPa | 0 mm | - | - | - |
| 1788020015 | 27.78° C | 33% | 1018.2 hPa | 0 mm | - | - | - |
| 1788019715 | 27.78° C | 33% | 1018.3 hPa | 0 mm | - | - | - |
| 1788019415 | 27.78° C | 33% | 1018.1 hPa | 0 mm | - | - | - |
| 1788019115 | 28.33° C | 32% | 1018.2 hPa | 0 mm | - | - | - |
| 1788018815 | 28.89° C | 32% | 1018.3 hPa | 0 mm | - | - | - |
| 1788018515 | 28.89° C | 32% | 1018.3 hPa | 0 mm | - | - | - |
| 1788018216 | 28.89° C | 32% | 1018.2 hPa | 0 mm | - | - | - |
| 1788017915 | 28.33° C | 33% | 1018.1 hPa | 0 mm | - | - | - |
| 1788017615 | 27.78° C | 34% | 1018.1 hPa | 0 mm | - | - | - |
| 1788017315 | 26.67° C | 41% | 1018.3 hPa | 0 mm | - | - | - |
| 1788017015 | 25.56° C | 40% | 1018.3 hPa | 0 mm | - | - | - |
| 1788016716 | 26.11° C | 40% | 1018.4 hPa | 0 mm | - | - | - |
| 1788016415 | 26.67° C | 40% | 1018.4 hPa | 0 mm | - | - | - |
* Rain latest hour (hover to see other rain measurements)
** Current wind speed in m/s (hover to see current wind gust speed)